User: anonymous
Location: Unspecified
(0.0000°N, 0.0000°E)
Time: 20:16:06
(UTC+02:00)
Language:

Iridium 4 Rocket - Orbit

View from above orbital plane
View from above orbital plane
View from above satellite
View from above satellite

Ground track
Ground track

The orbit data is extracted from the following two-line orbital elements,

1 24797U 97020F   14206.05089566  .00000294  00000-0  59502-4 0  7201
2 24797 086.8952 020.6643 0226262 243.3369 232.3695 14.43111692905286
Epoch (UTC): 25 July 2014 01:13:17
Eccentricity: 0.0226262
inclination: 86.8952°
perigee height: 587 km
apogee height: 909 km
right ascension of ascending node: 20.6643°
argument of perigee: 243.3369°
revolutions per day: 14.43111692
mean anomaly at epoch: 232.3695°
orbit number at epoch: 90528

The dashed part of the orbit path shows where the satellite is in the earth's shadow,  

DLR